Home   Weather   Fürstenwalde/Spree   Past weeks

Flag for Germany Past Weather in Fürstenwalde/Spree, Brandenburg, Germany — Yesterday and Last 2 Weeks

Now
48 °F

Sunny.


Feels Like: 44 °F
Forecast: 40 / 47 °F
Wind: 9 mph from Southwest

Location: Berlin-Schoenefeld

Current Time: Dec 8, 2016 at 3:39:30 pm

Latest Report: Dec 8, 2016 at 3:20 pm


Visibility: 10 mi

Pressure: 30.24 "Hg

Humidity: 66%

Dew Point: 37 °F

Location of Fürstenwalde/SpreeLocation

Past Weather in Fürstenwalde/Spree — Graph

°F

Fürstenwalde/Spree Temperature Yesterday

Maximum temperature yesterday: 39 °F (at 8:20 pm)
Minimum temperature yesterday: 32 °F (at 4:20 am)
Average temperature yesterday: 35 °F

High & Low Weather Summary for the Past Weeks

 TemperatureHumidityPressure
High50 °F (Nov 23, 2:20 pm)100% (Nov 23, 5:20 pm)30.57 "Hg (Nov 23, 5:20 pm)
Low19 °F (Nov 29, 2:20 am)56% (Nov 28, 1:50 pm)29.74 "Hg (Dec 1, 10:20 pm)
Average34 °F88%30.24 "Hg
* Reported Nov 23 2:20 pm — Dec 8 2:20 pm, Fürstenwalde/Spree, Weather by CustomWeather, © 2016

Note: Actual official high and low records may vary slightly from our data, if they occured in-between our weather recording intervals... More about our weather records

Advertising

Fürstenwalde/Spree Weather History for the Previous 24 Hours

Scroll right to see more
 ConditionsComfort  
Time TempWeatherWind HumidityBarometerVisibility
2:20 pm
Thu, Dec 8
50 °FBroken clouds.13 mph62%30.24 "HgN/A
1:50 pm50 °FPartly sunny.12 mph62%30.24 "HgN/A
1:20 pm50 °FSunny.10 mph62%30.24 "Hg10 mi
12:50 pm50 °FSunny.14 mph62%30.24 "Hg10 mi
12:20 pm50 °FSunny.15 mph58%30.27 "Hg10 mi
11:50 am48 °FSunny.15 mph66%30.27 "Hg10 mi
11:20 am46 °FSunny.12 mph66%30.27 "Hg10 mi
10:50 am46 °FSunny.12 mph66%30.27 "Hg10 mi
10:20 am45 °FSunny.12 mph71%30.27 "Hg10 mi
9:50 am45 °FSunny.13 mph71%30.27 "Hg10 mi
9:20 am41 °FSunny.13 mph76%30.27 "Hg10 mi
8:50 am39 °FSunny.12 mph81%30.30 "Hg10 mi
8:20 am39 °FSunny.13 mph81%30.27 "Hg10 mi
7:50 am39 °FClear.12 mph81%30.30 "Hg10 mi
7:20 am39 °FClear.13 mph81%30.30 "Hg10 mi
6:50 am39 °FClear.9 mph81%30.30 "Hg10 mi
6:20 am39 °FClear.10 mph81%30.30 "Hg10 mi
5:50 am39 °FClear.13 mph81%30.30 "Hg10 mi
5:20 am39 °FClear.15 mph81%30.27 "Hg10 mi
4:50 am39 °FClear.13 mph81%30.30 "Hg10 mi
4:20 am39 °FClear.13 mph81%30.30 "Hg10 mi
3:20 am39 °FClear.14 mph81%30.30 "Hg10 mi
2:50 am39 °FClear.12 mph81%30.30 "Hg10 mi
2:20 am39 °FClear.13 mph81%30.33 "Hg10 mi
1:50 am39 °FClear.12 mph81%30.33 "Hg10 mi
1:20 am39 °FClear.9 mph81%30.33 "Hg10 mi
12:50 am39 °FClear.9 mph81%30.33 "Hg10 mi
12:20 am39 °FClear.9 mph81%30.33 "Hg10 mi
11:50 pm
Wed, Dec 7
39 °FClear.12 mph81%30.33 "Hg10 mi
11:20 pm39 °FClear.9 mph81%30.33 "Hg10 mi
10:50 pm39 °FClear.10 mph81%30.36 "Hg10 mi
10:20 pm39 °FPartly cloudy.8 mph81%30.36 "HgN/A
9:50 pm39 °FLight rain. Clear.13 mph81%30.33 "HgN/A
9:20 pm39 °FLight rain. Passing clouds.10 mph81%30.36 "HgN/A
8:50 pm39 °FClear.9 mph81%30.36 "Hg10 mi
8:20 pm39 °FClear.8 mph81%30.36 "Hg10 mi
7:50 pm37 °FLight rain. Clear.10 mph87%30.39 "HgN/A
7:20 pm37 °FLight rain. Passing clouds.10 mph81%30.39 "HgN/A
6:50 pm37 °FPassing clouds.8 mph81%30.39 "HgN/A
6:20 pm36 °FPassing clouds.9 mph81%30.39 "HgN/A
5:50 pm36 °FPassing clouds.9 mph81%30.39 "HgN/A
5:20 pm36 °FLight rain. Partly cloudy.9 mph81%30.39 "HgN/A
4:50 pm36 °FPassing clouds.8 mph81%30.42 "HgN/A
4:20 pm36 °FClear.9 mph75%30.42 "Hg10 mi
3:20 pm36 °FSunny.9 mph81%30.42 "Hg10 mi
Weather by CustomWeather, © 2016

See weather overviewHow to use our weather pages